TimeEST,TemperatureF,Dew PointF,Humidity,Sea Level PressureIn,VisibilityMPH,Wind Direction,Wind SpeedMPH,Gust SpeedMPH,PrecipitationIn,Events,Conditions,WindDirDegrees,DateUTC
12:13 AM,2.5,-2.6,79,30.47,10.0,Calm,Calm,-,N/A,,Clear,0,2013-01-25 05:13:00
12:34 AM,4.5,-0.6,80,30.47,10.0,Calm,Calm,-,N/A,,Clear,0,2013-01-25 05:34:00
12:54 AM,5.9,-0.4,75,30.47,10.0,Calm,Calm,-,N/A,,Clear,0,2013-01-25 05:54:00
1:13 AM,6.6,-0.0,74,30.45,10.0,Calm,Calm,-,N/A,,Clear,0,2013-01-25 06:13:00
1:34 AM,7.2,-0.4,71,30.45,10.0,Calm,Calm,-,N/A,,Clear,0,2013-01-25 06:34:00
1:54 AM,7.7,-0.4,70,30.44,10.0,Calm,Calm,-,N/A,,Clear,0,2013-01-25 06:54:00
2:13 AM,8.1,-0.2,69,30.43,10.0,Calm,Calm,-,N/A,,Scattered Clouds,0,2013-01-25 07:13:00
2:34 AM,8.4,-0.0,68,30.42,10.0,Calm,Calm,-,N/A,,Overcast,0,2013-01-25 07:34:00
2:54 AM,8.4,0.7,71,30.41,10.0,Calm,Calm,-,N/A,,Overcast,0,2013-01-25 07:54:00
3:14 AM,8.6,1.0,71,30.40,10.0,Calm,Calm,-,N/A,,Overcast,0,2013-01-25 08:14:00
3:34 AM,9.0,1.6,72,30.38,10.0,Calm,Calm,-,N/A,,Mostly Cloudy,0,2013-01-25 08:34:00
3:54 AM,9.1,1.4,71,30.37,10.0,Calm,Calm,-,N/A,,Overcast,0,2013-01-25 08:54:00
4:14 AM,9.7,1.6,70,30.37,10.0,South,4.6,-,N/A,,Overcast,180,2013-01-25 09:14:00
4:34 AM,10.0,1.9,70,30.37,10.0,South,3.5,-,N/A,,Overcast,180,2013-01-25 09:34:00
4:54 AM,10.0,1.4,68,30.35,10.0,SSE,4.6,-,N/A,,Overcast,160,2013-01-25 09:54:00
5:14 AM,10.4,1.4,67,30.33,10.0,SSE,3.5,-,N/A,,Overcast,160,2013-01-25 10:14:00
5:34 AM,10.4,1.6,68,30.32,10.0,Calm,Calm,-,N/A,,Overcast,0,2013-01-25 10:34:00
5:54 AM,10.4,1.4,67,30.30,10.0,SSE,3.5,-,N/A,,Overcast,150,2013-01-25 10:54:00
6:14 AM,10.4,1.9,69,30.30,10.0,SSE,3.5,-,N/A,,Overcast,160,2013-01-25 11:14:00
6:34 AM,10.6,1.6,67,30.29,10.0,SSE,4.6,-,N/A,,Overcast,160,2013-01-25 11:34:00
6:54 AM,10.6,1.4,67,30.28,10.0,SSE,4.6,-,N/A,,Overcast,160,2013-01-25 11:54:00
7:14 AM,10.8,1.4,66,30.27,10.0,SSE,4.6,-,N/A,,Overcast,160,2013-01-25 12:14:00
7:34 AM,10.9,1.8,67,30.25,10.0,South,6.9,-,N/A,,Overcast,170,2013-01-25 12:34:00
7:54 AM,10.8,3.4,72,30.24,4.0,South,5.8,-,N/A,Snow,Light Snow,170,2013-01-25 12:54:00
8:34 AM,11.1,6.1,80,30.23,3.0,South,5.8,-,N/A,Snow,Light Snow,170,2013-01-25 13:34:00
8:54 AM,11.3,6.8,82,30.22,2.0,SSE,5.8,-,N/A,Snow,Light Snow,160,2013-01-25 13:54:00
9:14 AM,11.7,7.7,84,30.22,3.0,South,6.9,-,N/A,Snow,Light Snow,170,2013-01-25 14:14:00
9:34 AM,12.0,8.1,84,30.21,4.0,South,6.9,-,N/A,Snow,Light Snow,180,2013-01-25 14:34:00
9:54 AM,12.2,8.6,85,30.20,2.0,SSE,4.6,-,N/A,Snow,Light Snow,160,2013-01-25 14:54:00
10:14 AM,12.9,9.3,86,30.19,2.0,SSE,6.9,-,N/A,Snow,Light Snow,160,2013-01-25 15:14:00
10:34 AM,13.5,9.5,84,30.18,2.5,SSE,9.2,-,N/A,Snow,Light Snow,160,2013-01-25 15:34:00
10:54 AM,14.0,10.0,84,30.17,2.0,SSE,6.9,-,N/A,Snow,Light Snow,160,2013-01-25 15:54:00
11:14 AM,14.5,10.4,84,30.16,2.5,South,10.4,-,N/A,Snow,Light Snow,170,2013-01-25 16:14:00
11:34 AM,14.9,11.1,85,30.15,2.0,South,8.1,-,N/A,Snow,Light Snow,170,2013-01-25 16:34:00
11:54 AM,15.8,11.7,84,30.14,1.8,South,9.2,-,N/A,Snow,Light Snow,170,2013-01-25 16:54:00
12:14 PM,16.5,12.2,83,30.13,2.0,South,11.5,-,N/A,Snow,Light Snow,170,2013-01-25 17:14:00
12:34 PM,16.7,12.2,82,30.12,2.5,South,9.2,-,N/A,,Haze,180,2013-01-25 17:34:00
12:54 PM,17.2,12.2,81,30.10,5.0,SSE,10.4,-,N/A,Snow,Light Snow,160,2013-01-25 17:54:00
1:14 PM,18.0,12.2,78,30.08,5.0,South,10.4,-,N/A,Snow,Light Snow,180,2013-01-25 18:14:00
1:34 PM,17.8,12.2,79,30.07,5.0,South,9.2,-,N/A,,Haze,170,2013-01-25 18:34:00
1:55 PM,18.9,12.9,78,30.06,7.0,South,8.1,-,N/A,,Overcast,170,2013-01-25 18:55:00
2:14 PM,19.2,12.7,76,30.05,10.0,South,10.4,-,N/A,,Overcast,170,2013-01-25 19:14:00
2:34 PM,18.5,12.2,76,30.04,7.0,South,9.2,-,N/A,,Overcast,170,2013-01-25 19:34:00
2:55 PM,20.1,13.1,74,30.03,10.0,South,11.5,-,N/A,Snow,Light Snow,180,2013-01-25 19:55:00
3:14 PM,19.4,12.7,75,30.01,10.0,SSE,8.1,-,N/A,,Overcast,160,2013-01-25 20:14:00
3:34 PM,19.0,12.4,75,30.02,10.0,South,10.4,-,N/A,,Overcast,170,2013-01-25 20:34:00
3:55 PM,18.9,11.8,74,30.01,10.0,SSE,10.4,-,N/A,,Overcast,160,2013-01-25 20:55:00
4:14 PM,18.5,12.2,76,30.00,2.0,SSE,9.2,-,N/A,Snow,Light Snow,160,2013-01-25 21:14:00
4:34 PM,18.5,13.3,80,30.01,4.0,South,8.1,-,N/A,Snow,Light Snow,170,2013-01-25 21:34:00
4:54 PM,18.5,13.5,81,30.00,10.0,South,8.1,-,N/A,,Overcast,170,2013-01-25 21:54:00
5:14 PM,18.5,13.3,80,30.00,10.0,SSE,8.1,-,N/A,,Overcast,160,2013-01-25 22:14:00
5:35 PM,18.5,13.6,81,30.00,10.0,SSE,4.6,-,N/A,Snow,Light Snow,160,2013-01-25 22:35:00
5:54 PM,18.5,13.8,82,30.00,10.0,SSE,4.6,-,N/A,Snow,Light Snow,160,2013-01-25 22:54:00
6:14 PM,18.5,13.8,82,30.00,10.0,SSE,4.6,-,N/A,,Overcast,160,2013-01-25 23:14:00
6:35 PM,18.5,14.0,83,30.01,10.0,SSE,4.6,-,N/A,,Overcast,160,2013-01-25 23:35:00
6:54 PM,18.5,14.0,83,30.01,10.0,SSE,4.6,-,N/A,Snow,Light Snow,160,2013-01-25 23:54:00
7:14 PM,18.3,14.4,85,30.01,10.0,South,4.6,-,N/A,Snow,Light Snow,170,2013-01-26 00:14:00
7:34 PM,18.5,14.7,85,30.01,10.0,South,4.6,-,N/A,,Overcast,170,2013-01-26 00:34:00
7:54 PM,17.6,13.8,85,30.01,10.0,South,5.8,-,N/A,,Overcast,180,2013-01-26 00:54:00
8:15 PM,16.5,12.7,85,30.01,10.0,South,5.8,-,N/A,,Overcast,170,2013-01-26 01:15:00
8:34 PM,16.3,12.9,86,30.01,10.0,South,4.6,-,N/A,,Mostly Cloudy,170,2013-01-26 01:34:00
8:54 PM,15.6,12.0,86,30.01,10.0,South,4.6,-,N/A,Snow,Light Snow,170,2013-01-26 01:54:00
9:15 PM,14.4,11.1,87,30.01,10.0,SSE,4.6,-,N/A,,Mostly Cloudy,160,2013-01-26 02:15:00
9:34 PM,14.9,12.2,89,30.01,10.0,SSE,3.5,-,N/A,,Scattered Clouds,160,2013-01-26 02:34:00
9:54 PM,14.0,11.5,90,30.01,10.0,SSE,3.5,-,N/A,,Scattered Clouds,160,2013-01-26 02:54:00
10:15 PM,12.6,10.2,90,30.01,10.0,South,3.5,-,N/A,,Mostly Cloudy,170,2013-01-26 03:15:00
10:34 PM,13.1,10.8,90,30.01,10.0,South,3.5,-,N/A,,Mostly Cloudy,180,2013-01-26 03:34:00
10:54 PM,12.0,9.7,90,30.02,10.0,SSW,3.5,-,N/A,,Overcast,200,2013-01-26 03:54:00
11:14 PM,12.2,10.2,92,30.02,10.0,SSW,3.5,-,N/A,,Overcast,200,2013-01-26 04:14:00
11:34 PM,13.3,11.3,92,30.01,10.0,SSW,4.6,-,N/A,,Overcast,200,2013-01-26 04:34:00
11:54 PM,11.1,8.6,90,30.03,10.0,Calm,Calm,-,N/A,,Overcast,0,2013-01-26 04:54:00